Niagara Falls, NY

5:27 AM EST on December 16, 2019 (GMT -0500)
Niagara Falls International

Weather History for KIAG - November, 2019

Change the Weather History Date:

Tuesday, November 12, 2019

  Actual Average Record
Temperature  
Mean Temperature 20 °F -  
Max Temperature 24 °F 45 °F 69 °F (2012)
Min Temperature 16 °F 31 °F 15 °F (1997)
Degree Days  
Heating Degree Days 45    
Moisture  
Dew Point 15 °F    
Average Humidity 78    
Maximum Humidity 93    
Minimum Humidity 51    
Precipitation  
Precipitation 0.05 in - - ()
Sea Level Pressure  
Sea Level Pressure 30.14 in    
Wind  
Wind Speed 12 mph (NNW)    
Max Wind Speed 20 mph    
Max Gust Speed 25 mph    
Visibility 6 miles    
Events Snow    
Averages and records for this station are not official NWS values.
T = Trace of Precipitation, MM = Missing Value Source: NWS Daily Summary

Daily Weather History Graph

Daily Weather History Graph

Search for Another Location

Airport or City:

Astronomy

Nov. 12, 2019 Rise Set
Actual Time 7:04 AM EST 4:54 PM EST
Civil Twilight 6:33 AM EST 5:25 PM EST
Nautical Twilight 5:59 AM EST 5:59 PM EST
Astronomical Twilight 5:26 AM EST 6:32 PM EST
Moon 5:21 PM EST (11/12) 6:52 AM EST (11/12)
Length of Visible Light 10h 51m
Length of Day
9h 50m
Full, 100% of the Moon is Illuminated
Nov 12
Full
Nov 19
Last Quarter
Nov 26
New
Dec 4
First Quarter
Dec 12
Full

Hourly Weather History & Observations

Time (EST) Temp. Windchill Dew Point Humidity Pressure Visibility Wind Dir Wind Speed Gust Speed Precip Events Conditions
12:53 AM 24.1 °F 13.1 °F 21.0 °F 88% 30.04 in 0.8 mi North 11.5 mph - 0.02 in Snow Light Snow
1:12 AM 23.0 °F 10.6 °F 21.0 °F 92% 29.98 in 1.0 mi North 13.8 mph - 0.01 in Snow Light Snow
1:42 AM 23.0 °F 10.1 °F 19.9 °F 88% 29.99 in 0.8 mi North 15.0 mph - 0.01 in Snow Light Snow
1:53 AM 23.0 °F 11.1 °F 19.9 °F 88% 30.04 in 0.8 mi North 12.7 mph - 0.01 in Snow Light Snow
1:58 AM 21.9 °F 9.2 °F 19.9 °F 92% 29.99 in 1.0 mi North 13.8 mph - 0.00 in Snow Light Snow
2:44 AM 21.9 °F 11.0 °F 19.9 °F 92% 30.00 in 1.5 mi North 10.4 mph - 0.01 in Snow Light Snow
2:53 AM 21.9 °F 10.4 °F 19.9 °F 92% 30.06 in 1.5 mi North 11.5 mph - 0.01 in Snow Light Snow
3:03 AM 21.9 °F 13.4 °F 19.9 °F 92% 30.00 in 1.5 mi North 6.9 mph - 0.00 in Snow Light Snow
3:08 AM 21.9 °F 12.5 °F 19.9 °F 92% 30.00 in 3.0 mi North 8.1 mph - 0.00 in Snow Light Snow
3:23 AM 21.9 °F 11.0 °F 19.0 °F 89% 30.00 in 5.0 mi North 10.4 mph - 0.00 in Snow Light Snow
3:34 AM 21.9 °F 11.0 °F 19.9 °F 92% 30.00 in 4.0 mi North 10.4 mph - 0.00 in Snow Light Snow
3:53 AM 21.9 °F 11.7 °F 19.9 °F 92% 30.06 in 4.0 mi North 9.2 mph - 0.00 in Snow Light Snow
4:07 AM 21.9 °F 11.0 °F 19.0 °F 89% 30.01 in 6.0 mi North 10.4 mph - 0.01 in Snow Light Snow
4:50 AM 21.2 °F 10.9 °F 19.4 °F 93% 30.03 in 2.5 mi North 9.2 mph - 0.01 in Snow Light Snow
4:51 AM 21.9 °F 11.7 °F 19.0 °F 89% 30.08 in 2.5 mi North 9.2 mph - 0.01 in Snow Light Snow
5:36 AM 21.9 °F 11.0 °F 19.0 °F 89% 30.04 in 1.5 mi NNW 10.4 mph - 0.00 in Snow Light Snow
5:53 AM 21.0 °F 10.6 °F 19.0 °F 92% 30.10 in 1.8 mi North 9.2 mph - 0.00 in Snow Light Snow
6:53 AM 21.0 °F 9.3 °F 18.0 °F 88% 30.12 in 1.8 mi North 11.5 mph - 0.00 in Snow Light Snow
7:00 AM 21.0 °F 9.9 °F 17.1 °F 85% 30.06 in 1.0 mi North 10.4 mph - 0.00 in Snow Light Snow
7:53 AM 21.0 °F 14.6 °F 18.0 °F 88% 30.15 in 1.0 mi NNW 4.6 mph - 0.00 in Snow Light Snow
8:53 AM 21.9 °F 9.8 °F 16.0 °F 78% 30.16 in 2.0 mi NNW 12.7 mph - 0.00 in Snow Light Snow
9:53 AM 21.9 °F 10.4 °F 14.0 °F 72% 30.18 in 2.0 mi NNW 11.5 mph - 0.00 in   Overcast
10:07 AM 21.9 °F 9.8 °F 12.0 °F 66% 30.13 in 9.0 mi NNW 12.7 mph - N/A   Mostly Cloudy
10:53 AM 21.0 °F 7.1 °F 8.1 °F 57% 30.20 in 10.0 mi North 16.1 mph 25.3 mph N/A   Mostly Cloudy
11:53 AM 21.0 °F 7.6 °F 12.0 °F 68% 30.21 in 5.0 mi NNW 15.0 mph - 0.00 in Snow Light Snow
12:53 PM 21.0 °F 6.6 °F 10.9 °F 65% 30.22 in 10.0 mi NW 17.3 mph - 0.00 in   Overcast
1:03 PM 21.0 °F 7.6 °F 10.9 °F 65% 30.16 in 10.0 mi NNW 15.0 mph - N/A   Mostly Cloudy
1:53 PM 21.9 °F 11.7 °F 10.9 °F 63% 30.22 in 10.0 mi NW 9.2 mph - N/A   Mostly Cloudy
2:53 PM 23.0 °F 13.1 °F 10.9 °F 60% 30.23 in 10.0 mi NW 9.2 mph - 0.00 in Snow Light Snow
3:53 PM 21.9 °F 8.7 °F 9.0 °F 58% 30.24 in 10.0 mi West 15.0 mph - 0.00 in   Mostly Cloudy
4:53 PM 21.9 °F 8.2 °F 6.1 °F 51% 30.25 in 10.0 mi NW 16.1 mph - N/A   Mostly Cloudy
5:53 PM 21.0 °F 6.2 °F 7.0 °F 55% 30.27 in 10.0 mi NW 18.4 mph - N/A   Overcast
6:53 PM 19.9 °F 4.3 °F 6.1 °F 55% 30.28 in 10.0 mi NW 19.6 mph - N/A   Partly Cloudy
7:53 PM 18.0 °F 5.4 °F 7.0 °F 62% 30.30 in 10.0 mi WNW 11.5 mph - N/A   Partly Cloudy
8:53 PM 16.0 °F 3.6 °F 8.1 °F 71% 30.30 in 10.0 mi West 10.4 mph - N/A   Mostly Cloudy
9:53 PM 18.0 °F 3.6 °F 10.0 °F 71% 30.30 in 8.0 mi West 15.0 mph - 0.00 in Snow Light Snow
10:09 PM 18.0 °F 3.1 °F 10.9 °F 74% 30.24 in 10.0 mi West 16.1 mph - 0.00 in   Overcast
10:33 PM 18.0 °F 3.6 °F 10.9 °F 74% 30.24 in 10.0 mi West 15.0 mph - 0.00 in   Overcast
10:53 PM 18.0 °F 4.2 °F 12.0 °F 78% 30.30 in 10.0 mi West 13.8 mph - 0.00 in   Overcast
11:53 PM 18.0 °F 3.1 °F 10.9 °F 74% 30.30 in 10.0 mi West 16.1 mph - N/A   Overcast